[Date Prev][Date Next][Thread Prev][Thread Next] - [Date Index][Thread Index][Author Index]
2 Line ISS Keps 2-15
- Subject: [sarex] 2 Line ISS Keps 2-15
- From: "Dave Larsen PhD" <doc@xxxxxxxxxxx>
- Date: Tue, 15 Feb 2005 02:12:42 -0800
ISS
1 25544U 98067A 05046.19610528 .00022097 00000-0 17671-3 0 8182
2 25544 51.6458 164.7491 0009682 99.4029 329.9619 15.70960335356508
----
Via the sarex mailing list at AMSAT.ORG courtesy of AMSAT-NA.
To unsubscribe, send "unsubscribe sarex" to Majordomo@amsat.org
AMSAT Home